Location: Leuk
(46.3174°N, 7.6341°E)
Time: 21:31:03
(UTC+00:00)

Cosmos 2333 Rocket - Pass Details

Date: 09 March 2021
Orbit: 837 x 864 km, 70.8° (Epoch: 22 April)

Event Time Altitude Azimuth Distance (km) Brightness Sun altitude
Rises 02:36:59 0° 337° (NNW) 3,448 5.5 -33.3°
Reaches altitude 10° 02:39:41 10° 347° (NNW) 2,511 4.8 -32.9°
Maximum altitude 02:44:57 35° 52° (NE) 1,362 3.7 -32.2°
Drops below altitude 10° 02:50:12 10° 118° (ESE) 2,502 5.0 -31.4°
Sets 02:52:52 0° 127° (SE) 3,435 5.6 -31.0°
